This is the latest recevied weather packets stored in our database for station/object K9APR. If no packets are shown the sender has not sent any weather packets the latest 10 day(s).
| Time | Temp. | Humidity | Pressure | Rain* | Wind** | Luminosity | Snow |
|---|---|---|---|---|---|---|---|
| 1787614583 | 21.11° C | 73% | 1018 hPa | 0 mm | - | - | - |
| 1787614043 | 21.67° C | 71% | 1018 hPa | 0 mm | - | - | - |
| 1787613503 | 22.22° C | 66% | 1018.1 hPa | 0 mm | - | - | - |
| 1787612963 | 22.22° C | 67% | 1018 hPa | 0 mm | - | - | - |
| 1787612423 | 22.78° C | 68% | 1017.9 hPa | 0 mm | - | - | - |
| 1787611882 | 22.78° C | 63% | 1018 hPa | 0 mm | - | - | - |
| 1787611344 | 22.78° C | 63% | 1018.1 hPa | 0 mm | - | - | - |
| 1787610802 | 23.33° C | 63% | 1018.1 hPa | 0 mm | - | - | - |
| 1787610262 | 23.33° C | 62% | 1018.1 hPa | 0 mm | - | - | - |
| 1787609723 | 23.89° C | 59% | 1018 hPa | 0 mm | - | - | - |
| 1787609186 | 23.89° C | 60% | 1018 hPa | 0 mm | - | - | - |
| 1787608643 | 23.89° C | 57% | 1017.8 hPa | 0 mm | - | - | - |
| 1787608103 | 23.89° C | 56% | 1017.9 hPa | 0 mm | - | - | - |
| 1787607562 | 23.89° C | 56% | 1017.8 hPa | 0 mm | - | - | - |
| 1787607023 | 23.89° C | 58% | 1017.8 hPa | 0 mm | - | - | - |
| 1787606483 | 23.89° C | 58% | 1017.7 hPa | 0 mm | - | - | - |
| 1787605943 | 23.89° C | 57% | 1017.9 hPa | 0 mm | - | - | - |
| 1787605402 | 23.89° C | 58% | 1018 hPa | 0 mm | - | - | - |
| 1787604865 | 24.44° C | 60% | 1018.1 hPa | 0 mm | - | - | - |
| 1787604323 | 23.89° C | 59% | 1018.2 hPa | 0 mm | - | - | - |
| 1787603781 | 23.89° C | 60% | 1018.1 hPa | 0 mm | - | - | - |
| 1787603242 | 23.89° C | 59% | 1018.1 hPa | 0 mm | - | - | - |
| 1787602703 | 23.89° C | 57% | 1018.2 hPa | 0 mm | - | - | - |
| 1787602161 | 23.89° C | 59% | 1018 hPa | 0 mm | - | - | - |
| 1787601622 | 23.89° C | 59% | 1018.1 hPa | 0 mm | - | - | - |
* Rain latest hour (hover to see other rain measurements)
** Current wind speed in m/s (hover to see current wind gust speed)